Year,Month,Day,Hour,Minute,Value (Times are PST for temperature in C)
2012,08,20,00,00,11.30
2012,08,20,00,01,11.30
2012,08,20,00,02,11.30
2012,08,20,00,03,11.20
2012,08,20,00,04,11.20
2012,08,20,00,05,11.20
2012,08,20,00,06,11.20
2012,08,20,00,07,11.20
2012,08,20,00,08,11.20
2012,08,20,00,09,11.20
2012,08,20,00,10,11.20
2012,08,20,00,11,11.20
2012,08,20,00,12,11.20
2012,08,20,00,13,11.20
2012,08,20,00,17,11.10
2012,08,20,00,18,11.10
2012,08,20,00,19,11.10
2012,08,20,00,20,11.10
2012,08,20,00,21,11.10
2012,08,20,00,22,11.10
2012,08,20,00,23,11.10
2012,08,20,00,24,11.10
2012,08,20,00,25,11.10
2012,08,20,00,26,11.10
2012,08,20,00,27,11.10
2012,08,20,00,28,11.10
2012,08,20,00,29,11.10
2012,08,20,00,30,11.00
2012,08,20,00,31,11.00
2012,08,20,00,32,11.00
2012,08,20,00,33,11.00
2012,08,20,00,34,11.00
2012,08,20,00,35,11.00
2012,08,20,00,36,10.90
2012,08,20,00,37,10.90
2012,08,20,00,38,10.90
2012,08,20,00,39,10.90
2012,08,20,00,40,10.90
2012,08,20,00,41,10.90
2012,08,20,00,42,10.90
2012,08,20,00,43,10.90
2012,08,20,00,44,10.80
2012,08,20,00,45,10.80
2012,08,20,00,46,10.80
2012,08,20,00,47,10.80
2012,08,20,00,48,10.80
2012,08,20,00,49,10.80
2012,08,20,00,50,10.80
2012,08,20,00,51,10.80
2012,08,20,00,52,10.70
2012,08,20,00,53,10.70
2012,08,20,00,54,10.70
2012,08,20,00,55,10.70
2012,08,20,00,56,10.70
2012,08,20,00,57,10.70
2012,08,20,00,58,10.70
2012,08,20,00,59,10.70
2012,08,20,01,00,10.70
2012,08,20,01,01,10.70
2012,08,20,01,02,10.70
2012,08,20,01,03,10.70
2012,08,20,01,04,10.70
2012,08,20,01,05,10.60
2012,08,20,01,06,10.60
2012,08,20,01,07,10.60
2012,08,20,01,08,10.60
2012,08,20,01,09,10.60
2012,08,20,01,10,10.60
2012,08,20,01,11,10.60
2012,08,20,01,12,10.60
2012,08,20,01,13,10.60
2012,08,20,01,14,10.60
2012,08,20,01,15,10.60
2012,08,20,01,16,10.60
2012,08,20,01,17,10.50
2012,08,20,01,18,10.50
2012,08,20,01,19,10.50
2012,08,20,01,20,10.50
2012,08,20,01,21,10.50
2012,08,20,01,22,10.50
2012,08,20,01,23,10.50
2012,08,20,01,24,10.40
2012,08,20,01,25,10.40
2012,08,20,01,26,10.40
2012,08,20,01,27,10.40
2012,08,20,01,28,10.40
2012,08,20,01,29,10.40
2012,08,20,01,30,10.40
2012,08,20,01,31,10.40
2012,08,20,01,32,10.30
2012,08,20,01,33,10.30
2012,08,20,01,34,10.30
2012,08,20,01,35,10.30
2012,08,20,01,36,10.30
2012,08,20,01,37,10.30
2012,08,20,01,38,10.30
2012,08,20,01,39,10.30
2012,08,20,01,40,10.20
2012,08,20,01,41,10.20
2012,08,20,01,42,10.20
2012,08,20,01,43,10.20
2012,08,20,01,44,10.20
2012,08,20,01,45,10.20
2012,08,20,01,46,10.20
2012,08,20,01,47,10.20
2012,08,20,01,48,10.20
2012,08,20,01,49,10.20
2012,08,20,01,50,10.20
2012,08,20,01,51,10.20
2012,08,20,01,52,10.20
2012,08,20,01,53,10.20
2012,08,20,01,54,10.20
2012,08,20,01,55,10.20
2012,08,20,01,56,10.20
2012,08,20,01,57,10.20
2012,08,20,01,58,10.20
2012,08,20,01,59,10.10
2012,08,20,02,00,10.10
2012,08,20,02,01,10.10
2012,08,20,02,02,10.10
2012,08,20,02,03,10.10
2012,08,20,02,04,10.10
2012,08,20,02,05,10.10
2012,08,20,02,06,10.10
2012,08,20,02,07,10.10
2012,08,20,02,08,10.00
2012,08,20,02,09,10.00
2012,08,20,02,10,10.00
2012,08,20,02,11,10.00
2012,08,20,02,12,10.00
2012,08,20,02,13,10.00
2012,08,20,02,14,10.00
2012,08,20,02,15,10.00
2012,08,20,02,16,10.00
2012,08,20,02,17,10.00
2012,08,20,02,18,10.10
2012,08,20,02,19,10.10
2012,08,20,02,20,10.10
2012,08,20,02,21,10.20
2012,08,20,02,22,10.20
2012,08,20,02,23,10.20
2012,08,20,02,24,10.20
2012,08,20,02,25,10.20
2012,08,20,02,26,10.20
2012,08,20,02,27,10.20
2012,08,20,02,28,10.20
2012,08,20,02,29,10.20
2012,08,20,02,30,10.10
2012,08,20,02,31,10.10
2012,08,20,02,32,10.10
2012,08,20,02,33,10.10
2012,08,20,02,34,10.10
2012,08,20,02,35,10.10
2012,08,20,02,36,10.10
2012,08,20,02,37,10.10
2012,08,20,02,38,10.10
2012,08,20,02,39,10.10
2012,08,20,02,40,10.00
2012,08,20,02,41,10.00
2012,08,20,02,42,10.00
2012,08,20,02,43,10.00
2012,08,20,02,44,10.00
2012,08,20,02,45,10.00
2012,08,20,02,46,10.00
2012,08,20,02,47,10.00
2012,08,20,02,48,10.00
2012,08,20,02,49,10.10
2012,08,20,02,50,10.10
2012,08,20,02,51,10.10
2012,08,20,02,52,10.10
2012,08,20,02,53,10.10
2012,08,20,02,54,10.10
2012,08,20,02,55,10.10
2012,08,20,02,56,10.00
2012,08,20,02,57,10.00
2012,08,20,02,58,10.00
2012,08,20,02,59,10.00
2012,08,20,03,00,9.90
2012,08,20,03,01,9.90
2012,08,20,03,02,9.90
2012,08,20,03,03,9.90
2012,08,20,03,04,9.90
2012,08,20,03,05,9.90
2012,08,20,03,06,9.90
2012,08,20,03,07,9.90
2012,08,20,03,08,9.90
2012,08,20,03,09,9.90
2012,08,20,03,10,9.90
2012,08,20,03,11,9.90
2012,08,20,03,12,9.90
2012,08,20,03,13,9.90
2012,08,20,03,14,9.90
2012,08,20,03,15,9.90
2012,08,20,03,16,9.90
2012,08,20,03,17,9.90
2012,08,20,03,18,9.90
2012,08,20,03,19,9.90
2012,08,20,03,20,9.90
2012,08,20,03,21,9.90
2012,08,20,03,22,9.90
2012,08,20,03,23,9.90
2012,08,20,03,24,9.90
2012,08,20,03,25,9.80
2012,08,20,03,26,9.80
2012,08,20,03,27,9.80
2012,08,20,03,28,9.80
2012,08,20,03,29,9.70
2012,08,20,03,30,9.70
2012,08,20,03,31,9.70
2012,08,20,03,32,9.70
2012,08,20,03,33,9.70
2012,08,20,03,34,9.70
2012,08,20,03,35,9.70
2012,08,20,03,36,9.70
2012,08,20,03,37,9.70
2012,08,20,03,38,9.70
2012,08,20,03,39,9.70
2012,08,20,03,40,9.70
2012,08,20,03,41,9.70
2012,08,20,03,42,9.70
2012,08,20,03,43,9.70
2012,08,20,03,44,9.70
2012,08,20,03,45,9.70
2012,08,20,03,46,9.70
2012,08,20,03,47,9.70
2012,08,20,03,48,9.70
2012,08,20,03,49,9.70
2012,08,20,03,50,9.70
2012,08,20,03,51,9.70
2012,08,20,03,52,9.70
2012,08,20,03,53,9.60
2012,08,20,03,54,9.60
2012,08,20,03,55,9.60
2012,08,20,03,56,9.60
2012,08,20,03,57,9.60
2012,08,20,03,58,9.60
2012,08,20,03,59,9.60
2012,08,20,04,00,9.60
2012,08,20,04,01,9.60
2012,08,20,04,02,9.60
2012,08,20,04,03,9.60
2012,08,20,04,04,9.60
2012,08,20,04,05,9.60
2012,08,20,04,06,9.50
2012,08,20,04,07,9.50
2012,08,20,04,08,9.50
2012,08,20,04,09,9.40
2012,08,20,04,10,9.40
2012,08,20,04,11,9.40
2012,08,20,04,12,9.40
2012,08,20,04,13,9.30
2012,08,20,04,14,9.30
2012,08,20,04,15,9.30
2012,08,20,04,16,9.30
2012,08,20,04,17,9.30
2012,08,20,04,18,9.30
2012,08,20,04,19,9.30
2012,08,20,04,20,9.30
2012,08,20,04,21,9.30
2012,08,20,04,22,9.30
2012,08,20,04,23,9.30
2012,08,20,04,24,9.20
2012,08,20,04,25,9.20
2012,08,20,04,26,9.20
2012,08,20,04,27,9.20
2012,08,20,04,28,9.20
2012,08,20,04,29,9.20
2012,08,20,04,30,9.20
2012,08,20,04,31,9.20
2012,08,20,04,32,9.20
2012,08,20,04,33,9.10
2012,08,20,04,34,9.10
2012,08,20,04,35,9.10
2012,08,20,04,36,9.10
2012,08,20,04,37,9.10
2012,08,20,04,38,9.10
2012,08,20,04,39,9.10
2012,08,20,04,40,9.10
2012,08,20,04,41,9.10
2012,08,20,04,42,9.10
2012,08,20,04,43,9.10
2012,08,20,04,44,9.10
2012,08,20,04,45,9.00
2012,08,20,04,46,9.00
2012,08,20,04,47,9.00
2012,08,20,04,48,9.00
2012,08,20,04,49,9.00
2012,08,20,04,50,9.00
2012,08,20,04,51,9.00
2012,08,20,04,52,9.10
2012,08,20,04,53,9.10
2012,08,20,04,54,9.10
2012,08,20,04,55,9.10
2012,08,20,04,56,9.10
2012,08,20,04,57,9.10
2012,08,20,04,58,9.20
2012,08,20,04,59,9.10
2012,08,20,05,00,9.20
2012,08,20,05,01,9.20
2012,08,20,05,02,9.20
2012,08,20,05,03,9.20
2012,08,20,05,04,9.10
2012,08,20,05,05,9.10
2012,08,20,05,06,9.10
2012,08,20,05,07,9.10
2012,08,20,05,08,9.10
2012,08,20,05,09,9.10
2012,08,20,05,10,9.10
2012,08,20,05,11,9.10
2012,08,20,05,12,9.10
2012,08,20,05,13,9.10
2012,08,20,05,14,9.10
2012,08,20,05,15,9.10
2012,08,20,05,16,9.10
2012,08,20,05,17,9.10
2012,08,20,05,18,9.10
2012,08,20,05,19,9.10
2012,08,20,05,20,9.10
2012,08,20,05,21,9.10
2012,08,20,05,22,9.10
2012,08,20,05,23,9.00
2012,08,20,05,24,9.10
2012,08,20,05,25,9.00
2012,08,20,05,26,9.00
2012,08,20,05,27,9.00
2012,08,20,05,28,9.00
2012,08,20,05,29,9.00
2012,08,20,05,30,9.00
2012,08,20,05,31,9.00
2012,08,20,05,32,9.00
2012,08,20,05,33,9.00
2012,08,20,05,34,9.00
2012,08,20,05,35,9.00
2012,08,20,05,36,9.00
2012,08,20,05,37,8.90
2012,08,20,05,38,8.90
2012,08,20,05,39,8.90
2012,08,20,05,40,8.90
2012,08,20,05,41,8.90
2012,08,20,05,42,8.90
2012,08,20,05,43,8.80
2012,08,20,05,44,8.80
2012,08,20,05,45,8.80
2012,08,20,05,46,8.80
2012,08,20,05,47,8.80
2012,08,20,05,48,8.80
2012,08,20,05,49,8.80
2012,08,20,05,50,8.80
2012,08,20,05,51,8.80
2012,08,20,05,52,8.80
2012,08,20,05,53,8.80
2012,08,20,05,54,8.80
2012,08,20,05,55,8.80
2012,08,20,05,56,8.80
2012,08,20,05,57,8.80
2012,08,20,05,58,8.80
2012,08,20,05,59,8.80
2012,08,20,06,00,8.80
2012,08,20,06,01,8.80
2012,08,20,06,02,8.80
2012,08,20,06,03,8.80
2012,08,20,06,04,8.80
2012,08,20,06,05,8.80
2012,08,20,06,06,8.80
2012,08,20,06,07,8.80
2012,08,20,06,08,8.80
2012,08,20,06,09,8.80
2012,08,20,06,10,8.80
2012,08,20,06,11,8.80
2012,08,20,06,12,8.80
2012,08,20,06,13,8.80
2012,08,20,06,14,8.70
2012,08,20,06,15,8.70
2012,08,20,06,16,8.70
2012,08,20,06,17,8.70
2012,08,20,06,18,8.70
2012,08,20,06,19,8.70
2012,08,20,06,20,8.70
2012,08,20,06,21,8.70
2012,08,20,06,22,8.70
2012,08,20,06,23,8.70
2012,08,20,06,24,8.70
2012,08,20,06,25,8.60
2012,08,20,06,26,8.60
2012,08,20,06,27,8.60
2012,08,20,06,28,8.60
2012,08,20,06,29,8.60
2012,08,20,06,30,8.60
2012,08,20,06,31,8.60
2012,08,20,06,32,8.60
2012,08,20,06,33,8.60
2012,08,20,06,34,8.60
2012,08,20,06,35,8.60
2012,08,20,06,36,8.60
2012,08,20,06,37,8.60
2012,08,20,06,38,8.60
2012,08,20,06,39,8.60
2012,08,20,06,40,8.60
2012,08,20,06,41,8.60
2012,08,20,06,42,8.60
2012,08,20,06,43,8.60
2012,08,20,06,44,8.60
2012,08,20,06,45,8.60
2012,08,20,06,46,8.60
2012,08,20,06,47,8.70
2012,08,20,06,48,8.70
2012,08,20,06,49,8.70
2012,08,20,06,50,8.70
2012,08,20,06,51,8.70
2012,08,20,06,52,8.70
2012,08,20,06,53,8.80
2012,08,20,06,54,8.80
2012,08,20,06,55,8.80
2012,08,20,06,56,8.80
2012,08,20,06,57,8.80
2012,08,20,06,58,8.80
2012,08,20,06,59,8.90
2012,08,20,07,00,8.90
2012,08,20,07,01,8.90
2012,08,20,07,02,8.90
2012,08,20,07,03,8.90
2012,08,20,07,04,8.90
2012,08,20,07,05,8.90
2012,08,20,07,06,9.00
2012,08,20,07,07,9.00
2012,08,20,07,08,9.00
2012,08,20,07,09,9.00
2012,08,20,07,10,9.10
2012,08,20,07,11,9.10
2012,08,20,07,12,9.10
2012,08,20,07,13,9.10
2012,08,20,07,14,9.10
2012,08,20,07,15,9.10
2012,08,20,07,16,9.20
2012,08,20,07,17,9.20
2012,08,20,07,18,9.20
2012,08,20,07,19,9.20
2012,08,20,07,20,9.20
2012,08,20,07,21,9.20
2012,08,20,07,22,9.20
2012,08,20,07,23,9.30
2012,08,20,07,24,9.30
2012,08,20,07,25,9.30
2012,08,20,07,26,9.30
2012,08,20,07,27,9.30
2012,08,20,07,28,9.30
2012,08,20,07,29,9.30
2012,08,20,07,30,9.40
2012,08,20,07,31,9.40
2012,08,20,07,32,9.40
2012,08,20,07,33,9.50
2012,08,20,07,34,9.50
2012,08,20,07,35,9.50
2012,08,20,07,36,9.50
2012,08,20,07,37,9.60
2012,08,20,07,38,9.60
2012,08,20,07,39,9.60
2012,08,20,07,40,9.60
2012,08,20,07,41,9.70
2012,08,20,07,42,9.70
2012,08,20,07,43,9.70
2012,08,20,07,44,9.70
2012,08,20,07,45,9.80
2012,08,20,07,46,9.80
2012,08,20,07,47,9.80
2012,08,20,07,48,9.90
2012,08,20,07,49,9.90
2012,08,20,07,50,10.00
2012,08,20,07,51,10.00
2012,08,20,07,52,10.10
2012,08,20,07,53,10.10
2012,08,20,07,54,10.20
2012,08,20,07,55,10.20
2012,08,20,07,56,10.30
2012,08,20,07,57,10.30
2012,08,20,07,58,10.30
2012,08,20,07,59,10.40
2012,08,20,08,00,10.50
2012,08,20,08,01,10.60
2012,08,20,08,02,10.60
2012,08,20,08,03,10.70
2012,08,20,08,04,10.80
2012,08,20,08,05,10.90
2012,08,20,08,06,10.90
2012,08,20,08,07,11.00
2012,08,20,08,08,11.00
2012,08,20,08,09,11.10
2012,08,20,08,10,11.20
2012,08,20,08,11,11.20
2012,08,20,08,12,11.30
2012,08,20,08,13,11.40
2012,08,20,08,14,11.40
2012,08,20,08,15,11.50
2012,08,20,08,16,11.60
2012,08,20,08,17,11.70
2012,08,20,08,18,11.80
2012,08,20,08,19,11.90
2012,08,20,08,20,11.90
2012,08,20,08,21,12.00
2012,08,20,08,22,12.10
2012,08,20,08,23,12.20
2012,08,20,08,24,12.30
2012,08,20,08,25,12.30
2012,08,20,08,26,12.40
2012,08,20,08,27,12.50
2012,08,20,08,28,12.60
2012,08,20,08,29,12.60
2012,08,20,08,30,12.70
2012,08,20,08,31,12.70
2012,08,20,08,32,12.70
2012,08,20,08,33,12.80
2012,08,20,08,34,12.80
2012,08,20,08,35,12.80
2012,08,20,08,36,12.90
2012,08,20,08,37,12.90
2012,08,20,08,38,13.00
2012,08,20,08,39,13.10
2012,08,20,08,40,13.10
2012,08,20,08,41,13.20
2012,08,20,08,42,13.30
2012,08,20,08,43,13.30
2012,08,20,08,44,13.40
2012,08,20,08,45,13.50
2012,08,20,08,46,13.50
2012,08,20,08,47,13.60
2012,08,20,08,48,13.70
2012,08,20,08,49,13.70
2012,08,20,08,50,13.70
2012,08,20,08,51,13.80
2012,08,20,08,52,13.80
2012,08,20,08,53,13.90
2012,08,20,08,54,14.00
2012,08,20,08,55,14.00
2012,08,20,08,56,14.20
2012,08,20,08,57,14.20
2012,08,20,08,58,14.30
2012,08,20,08,59,14.40
2012,08,20,09,00,14.40
2012,08,20,09,01,14.50
2012,08,20,09,02,14.60
2012,08,20,09,03,14.70
2012,08,20,09,04,14.70
2012,08,20,09,05,14.80
2012,08,20,09,06,14.80
2012,08,20,09,07,14.90
2012,08,20,09,08,15.00
2012,08,20,09,09,15.10
2012,08,20,09,10,15.20
2012,08,20,09,11,15.30
2012,08,20,09,12,15.40
2012,08,20,09,13,15.40
2012,08,20,09,14,15.50
2012,08,20,09,15,15.60
2012,08,20,09,16,15.70
2012,08,20,09,17,15.80
2012,08,20,09,18,15.80
2012,08,20,09,19,15.90
2012,08,20,09,20,16.00
2012,08,20,09,21,16.00
2012,08,20,09,22,16.00
2012,08,20,09,23,16.00
2012,08,20,09,24,16.10
2012,08,20,09,25,16.10
2012,08,20,09,26,16.20
2012,08,20,09,27,16.20
2012,08,20,09,28,16.30
2012,08,20,09,29,16.40
2012,08,20,09,30,16.40
2012,08,20,09,31,16.50
2012,08,20,09,32,16.60
2012,08,20,09,33,16.60
2012,08,20,09,34,16.70
2012,08,20,09,35,16.70
2012,08,20,09,36,16.80
2012,08,20,09,37,16.80
2012,08,20,09,38,16.90
2012,08,20,09,39,16.90
2012,08,20,09,40,17.00
2012,08,20,09,41,17.10
2012,08,20,09,42,17.10
2012,08,20,09,43,17.10
2012,08,20,09,44,17.10
2012,08,20,09,45,17.00
2012,08,20,09,46,17.00
2012,08,20,09,47,16.90
2012,08,20,09,48,17.00
2012,08,20,09,49,17.10
2012,08,20,09,50,17.10
2012,08,20,09,51,17.10
2012,08,20,09,52,17.20
2012,08,20,09,53,17.20
2012,08,20,09,54,17.20
2012,08,20,09,55,17.30
2012,08,20,09,56,17.30
2012,08,20,09,57,17.30
2012,08,20,09,58,17.30
2012,08,20,09,59,17.30
2012,08,20,10,00,17.30
2012,08,20,10,01,17.30
2012,08,20,10,02,17.30
2012,08,20,10,03,17.30
2012,08,20,10,04,17.30
2012,08,20,10,05,17.20
2012,08,20,10,06,17.20
2012,08,20,10,07,17.10
2012,08,20,10,08,17.10
2012,08,20,10,09,17.10
2012,08,20,10,10,17.10
2012,08,20,10,11,17.00
2012,08,20,10,12,17.00
2012,08,20,10,13,17.00
2012,08,20,10,14,17.00
2012,08,20,10,15,17.00
2012,08,20,10,16,16.90
2012,08,20,10,17,16.90
2012,08,20,10,18,16.90
2012,08,20,10,19,16.90
2012,08,20,10,20,16.90
2012,08,20,10,21,16.90
2012,08,20,10,22,16.90
2012,08,20,10,23,16.90
2012,08,20,10,24,17.00
2012,08,20,10,25,17.10
2012,08,20,10,26,17.10
2012,08,20,10,27,17.20
2012,08,20,10,28,17.20
2012,08,20,10,29,17.30
2012,08,20,10,30,17.30
2012,08,20,10,31,17.40
2012,08,20,10,32,17.40
2012,08,20,10,33,17.40
2012,08,20,10,34,17.40
2012,08,20,10,35,17.50
2012,08,20,10,36,17.50
2012,08,20,10,37,17.60
2012,08,20,10,38,17.60
2012,08,20,10,39,17.70
2012,08,20,10,40,17.70
2012,08,20,10,41,17.80
2012,08,20,10,42,17.80
2012,08,20,10,43,17.80
2012,08,20,10,44,17.90
2012,08,20,10,45,17.90
2012,08,20,10,46,18.00
2012,08,20,10,47,18.00
2012,08,20,10,48,18.00
2012,08,20,10,49,18.10
2012,08,20,10,50,18.10
2012,08,20,10,51,18.10
2012,08,20,10,52,18.20
2012,08,20,10,53,18.20
2012,08,20,10,54,18.20
2012,08,20,10,55,18.20
2012,08,20,10,56,18.20
2012,08,20,10,57,18.20
2012,08,20,10,58,18.10
2012,08,20,10,59,18.00
2012,08,20,11,00,18.00
2012,08,20,11,01,17.90
2012,08,20,11,02,17.90
2012,08,20,11,03,17.80
2012,08,20,11,04,17.80
2012,08,20,11,05,17.80
2012,08,20,11,06,17.70
2012,08,20,11,07,17.70
2012,08,20,11,08,17.60
2012,08,20,11,09,17.60
2012,08,20,11,10,17.60
2012,08,20,11,11,17.60
2012,08,20,11,12,17.60
2012,08,20,11,13,17.70
2012,08,20,11,14,17.70
2012,08,20,11,15,17.80
2012,08,20,11,16,17.90
2012,08,20,11,17,18.00
2012,08,20,11,18,18.10
2012,08,20,11,19,18.20
2012,08,20,11,20,18.20
2012,08,20,11,21,18.20
2012,08,20,11,22,18.30
2012,08,20,11,23,18.20
2012,08,20,11,24,18.20
2012,08,20,11,25,18.20
2012,08,20,11,26,18.20
2012,08,20,11,27,18.10
2012,08,20,11,28,18.10
2012,08,20,11,29,18.00
2012,08,20,11,30,18.00
2012,08,20,11,31,18.00
2012,08,20,11,32,18.00
2012,08,20,11,33,18.00
2012,08,20,11,34,18.00
2012,08,20,11,35,18.00
2012,08,20,11,36,17.90
2012,08,20,11,37,17.90
2012,08,20,11,38,18.00
2012,08,20,11,39,18.00
2012,08,20,11,40,18.00
2012,08,20,11,41,18.10
2012,08,20,11,42,18.10
2012,08,20,11,43,18.20
2012,08,20,11,44,18.30
2012,08,20,11,45,18.40
2012,08,20,11,46,18.50
2012,08,20,11,47,18.50
2012,08,20,11,48,18.50
2012,08,20,11,49,18.60
2012,08,20,11,50,18.60
2012,08,20,11,51,18.60
2012,08,20,11,52,18.60
2012,08,20,11,53,18.60
2012,08,20,11,54,18.70
2012,08,20,11,55,18.70
2012,08,20,11,56,18.80
2012,08,20,11,57,18.80
2012,08,20,11,58,18.90
2012,08,20,11,59,19.00
2012,08,20,12,00,19.10
2012,08,20,12,01,19.20
2012,08,20,12,02,19.20
2012,08,20,12,03,19.20
2012,08,20,12,04,19.30
2012,08,20,12,05,19.30
2012,08,20,12,06,19.30
2012,08,20,12,07,19.40
2012,08,20,12,08,19.40
2012,08,20,12,09,19.40
2012,08,20,12,10,19.50
2012,08,20,12,11,19.60
2012,08,20,12,12,19.60
2012,08,20,12,13,19.70
2012,08,20,12,14,19.80
2012,08,20,12,15,19.90
2012,08,20,12,16,19.90
2012,08,20,12,17,20.00
2012,08,20,12,18,20.10
2012,08,20,12,19,20.20
2012,08,20,12,20,20.20
2012,08,20,12,21,20.20
2012,08,20,12,22,20.30
2012,08,20,12,23,20.30
2012,08,20,12,24,20.30
2012,08,20,12,25,20.40
2012,08,20,12,26,20.40
2012,08,20,12,27,20.50
2012,08,20,12,28,20.40
2012,08,20,12,29,20.40
2012,08,20,12,30,20.40
2012,08,20,12,31,20.40
2012,08,20,12,32,20.40
2012,08,20,12,33,20.40
2012,08,20,12,34,20.40
2012,08,20,12,35,20.40
2012,08,20,12,36,20.50
2012,08,20,12,37,20.50
2012,08,20,12,38,20.50
2012,08,20,12,39,20.50
2012,08,20,12,40,20.40
2012,08,20,12,41,20.40
2012,08,20,12,42,20.40
2012,08,20,12,43,20.40
2012,08,20,12,44,20.40
2012,08,20,12,45,20.40
2012,08,20,12,46,20.40
2012,08,20,12,47,20.40
2012,08,20,12,48,20.40
2012,08,20,12,49,20.40
2012,08,20,12,50,20.40
2012,08,20,12,51,20.40
2012,08,20,12,52,20.30
2012,08,20,12,53,20.30
2012,08,20,12,54,20.30
2012,08,20,12,55,20.30
2012,08,20,12,56,20.30
2012,08,20,12,57,20.40
2012,08,20,12,58,20.40
2012,08,20,12,59,20.50
2012,08,20,13,00,20.50
2012,08,20,13,01,20.50
2012,08,20,13,02,20.50
2012,08,20,13,03,20.50
2012,08,20,13,04,20.60
2012,08,20,13,05,20.60
2012,08,20,13,06,20.70
2012,08,20,13,07,20.70
2012,08,20,13,08,20.70
2012,08,20,13,09,20.70
2012,08,20,13,10,20.60
2012,08,20,13,11,20.50
2012,08,20,13,12,20.40
2012,08,20,13,13,20.40
2012,08,20,13,14,20.40
2012,08,20,13,15,20.30
2012,08,20,13,16,20.30
2012,08,20,13,17,20.20
2012,08,20,13,18,20.30
2012,08,20,13,19,20.30
2012,08,20,13,20,20.30
2012,08,20,13,21,20.30
2012,08,20,13,22,20.30
2012,08,20,13,23,20.20
2012,08,20,13,24,20.20
2012,08,20,13,25,20.10
2012,08,20,13,26,20.00
2012,08,20,13,27,19.90
2012,08,20,13,28,19.80
2012,08,20,13,29,19.70
2012,08,20,13,30,19.70
2012,08,20,13,31,19.60
2012,08,20,13,32,19.60
2012,08,20,13,33,19.70
2012,08,20,13,34,19.70
2012,08,20,13,35,19.70
2012,08,20,13,36,19.80
2012,08,20,13,37,19.80
2012,08,20,13,38,19.80
2012,08,20,13,39,19.90
2012,08,20,13,40,20.00
2012,08,20,13,41,20.00
2012,08,20,13,42,20.10
2012,08,20,13,43,20.10
2012,08,20,13,44,20.00
2012,08,20,13,45,20.00
2012,08,20,13,46,20.10
2012,08,20,13,47,20.20
2012,08,20,13,48,20.20
2012,08,20,13,49,20.20
2012,08,20,13,50,20.30
2012,08,20,13,51,20.30
2012,08,20,13,52,20.40
2012,08,20,13,53,20.40
2012,08,20,13,54,20.50
2012,08,20,13,55,20.60
2012,08,20,13,56,20.70
2012,08,20,13,57,20.60
2012,08,20,13,58,20.60
2012,08,20,13,59,20.60
2012,08,20,14,00,20.50
2012,08,20,14,01,20.60
2012,08,20,14,02,20.60
2012,08,20,14,03,20.60
2012,08,20,14,04,20.50
2012,08,20,14,05,20.50
2012,08,20,14,06,20.50
2012,08,20,14,07,20.50
2012,08,20,14,08,20.50
2012,08,20,14,09,20.40
2012,08,20,14,10,20.30
2012,08,20,14,11,20.20
2012,08,20,14,12,20.10
2012,08,20,14,13,20.10
2012,08,20,14,14,20.00
2012,08,20,14,15,20.10
2012,08,20,14,16,20.10
2012,08,20,14,17,20.10
2012,08,20,14,18,20.10
2012,08,20,14,19,20.10
2012,08,20,14,20,20.20
2012,08,20,14,21,20.20
2012,08,20,14,22,20.20
2012,08,20,14,23,20.20
2012,08,20,14,24,20.20
2012,08,20,14,25,20.20
2012,08,20,14,26,20.20
2012,08,20,14,27,20.20
2012,08,20,14,28,20.20
2012,08,20,14,29,20.20
2012,08,20,14,30,20.20
2012,08,20,14,31,20.20
2012,08,20,14,32,20.30
2012,08,20,14,33,20.40
2012,08,20,14,34,20.40
2012,08,20,14,35,20.30
2012,08,20,14,36,20.30
2012,08,20,14,37,20.30
2012,08,20,14,38,20.30
2012,08,20,14,39,20.20
2012,08,20,14,40,20.30
2012,08,20,14,41,20.30
2012,08,20,14,42,20.40
2012,08,20,14,43,20.50
2012,08,20,14,44,20.60
2012,08,20,14,45,20.60
2012,08,20,14,46,20.60
2012,08,20,14,47,20.60
2012,08,20,14,48,20.60
2012,08,20,14,49,20.60
2012,08,20,14,50,20.50
2012,08,20,14,51,20.40
2012,08,20,14,52,20.30
2012,08,20,14,53,20.30
2012,08,20,14,54,20.30
2012,08,20,14,55,20.30
2012,08,20,14,56,20.30
2012,08,20,14,57,20.30
2012,08,20,14,58,20.20
2012,08,20,14,59,20.10
2012,08,20,15,00,20.10
2012,08,20,15,01,20.00
2012,08,20,15,02,20.00
2012,08,20,15,03,20.00
2012,08,20,15,04,20.00
2012,08,20,15,05,20.00
2012,08,20,15,06,20.00
2012,08,20,15,07,20.00
2012,08,20,15,08,20.00
2012,08,20,15,09,20.00
2012,08,20,15,10,20.00
2012,08,20,15,11,19.90
2012,08,20,15,12,19.80
2012,08,20,15,13,19.80
2012,08,20,15,14,19.90
2012,08,20,15,15,19.90
2012,08,20,15,16,20.00
2012,08,20,15,17,20.10
2012,08,20,15,18,20.10
2012,08,20,15,19,20.10
2012,08,20,15,20,20.10
2012,08,20,15,21,20.10
2012,08,20,15,22,20.10
2012,08,20,15,23,20.10
2012,08,20,15,24,20.20
2012,08,20,15,25,20.20
2012,08,20,15,26,20.20
2012,08,20,15,27,20.20
2012,08,20,15,28,20.30
2012,08,20,15,29,20.20
2012,08,20,15,30,20.20
2012,08,20,15,31,20.20
2012,08,20,15,32,20.20
2012,08,20,15,33,20.20
2012,08,20,15,34,20.30
2012,08,20,15,35,20.40
2012,08,20,15,36,20.40
2012,08,20,15,37,20.40
2012,08,20,15,38,20.40
2012,08,20,15,39,20.30
2012,08,20,15,40,20.20
2012,08,20,15,41,20.20
2012,08,20,15,42,20.20
2012,08,20,15,43,20.10
2012,08,20,15,44,20.00
2012,08,20,15,45,19.90
2012,08,20,15,46,19.90
2012,08,20,15,47,19.80
2012,08,20,15,48,19.80
2012,08,20,15,49,19.70
2012,08,20,15,50,19.70
2012,08,20,15,51,19.70
2012,08,20,15,52,19.70
2012,08,20,15,53,19.70
2012,08,20,15,54,19.80
2012,08,20,15,55,19.80
2012,08,20,15,56,19.90
2012,08,20,15,57,20.00
2012,08,20,15,58,20.00
2012,08,20,15,59,20.10
2012,08,20,16,00,20.10
2012,08,20,16,01,20.20
2012,08,20,16,02,20.30
2012,08,20,16,03,20.30
2012,08,20,16,04,20.30
2012,08,20,16,05,20.30
2012,08,20,16,06,20.30
2012,08,20,16,07,20.30
2012,08,20,16,08,20.30
2012,08,20,16,09,20.30
2012,08,20,16,10,20.30
2012,08,20,16,11,20.30
2012,08,20,16,12,20.30
2012,08,20,16,13,20.30
2012,08,20,16,14,20.30
2012,08,20,16,15,20.30
2012,08,20,16,16,20.30
2012,08,20,16,17,20.50
2012,08,20,16,18,20.60
2012,08,20,16,19,20.70
2012,08,20,16,20,20.80
2012,08,20,16,21,20.80
2012,08,20,16,22,20.80
2012,08,20,16,23,20.90
2012,08,20,16,24,20.90
2012,08,20,16,25,20.90
2012,08,20,16,26,20.80
2012,08,20,16,27,20.80
2012,08,20,16,28,20.70
2012,08,20,16,29,20.70
2012,08,20,16,30,20.70
2012,08,20,16,31,20.70
2012,08,20,16,32,20.60
2012,08,20,16,33,20.60
2012,08,20,16,34,20.60
2012,08,20,16,35,20.60
2012,08,20,16,36,20.60
2012,08,20,16,37,20.50
2012,08,20,16,38,20.40
2012,08,20,16,39,20.20
2012,08,20,16,40,20.10
2012,08,20,16,41,20.00
2012,08,20,16,42,20.00
2012,08,20,16,43,19.90
2012,08,20,16,44,19.90
2012,08,20,16,45,19.90
2012,08,20,16,46,19.80
2012,08,20,16,47,19.80
2012,08,20,16,48,19.70
2012,08,20,16,49,19.50
2012,08,20,16,50,19.40
2012,08,20,16,51,19.30
2012,08,20,16,52,19.30
2012,08,20,16,53,19.40
2012,08,20,16,54,19.40
2012,08,20,16,55,19.50
2012,08,20,16,56,19.50
2012,08,20,16,57,19.60
2012,08,20,16,58,19.60
2012,08,20,16,59,19.70
2012,08,20,17,00,19.70
2012,08,20,17,01,19.70
2012,08,20,17,02,19.80
2012,08,20,17,03,19.80
2012,08,20,17,04,19.70
2012,08,20,17,05,19.70
2012,08,20,17,06,19.60
2012,08,20,17,07,19.60
2012,08,20,17,08,19.60
2012,08,20,17,09,19.50
2012,08,20,17,10,19.50
2012,08,20,17,11,19.50
2012,08,20,17,12,19.60
2012,08,20,17,13,19.60
2012,08,20,17,14,19.60
2012,08,20,17,15,19.60
2012,08,20,17,16,19.60
2012,08,20,17,17,19.60
2012,08,20,17,18,19.60
2012,08,20,17,19,19.50
2012,08,20,17,20,19.60
2012,08,20,17,21,19.60
2012,08,20,17,22,19.60
2012,08,20,17,23,19.60
2012,08,20,17,24,19.60
2012,08,20,17,25,19.60
2012,08,20,17,26,19.60
2012,08,20,17,27,19.60
2012,08,20,17,28,19.60
2012,08,20,17,29,19.60
2012,08,20,17,30,19.60
2012,08,20,17,31,19.60
2012,08,20,17,32,19.60
2012,08,20,17,33,19.60
2012,08,20,17,34,19.60
2012,08,20,17,35,19.60